Wind_Speed
18 22 24 25 28 30 29 28 26 24 22 20 19 19 19 19 21 19 17 14 9 5 9 9 10 12 17 19 18 17 18 19 21 23 23 22 22 22 23 23 24 22 21 24 23 25 25
6 5 4 3 2 3 5 8 9 10 11 11 6 9 11 11 11 10 5 10 9 8 5 7 9 10 12 16 23 19 20 21 24 28 29 28 24 24 26 29 29 30 30 32 32 33 37
8 6 6 4 5 5 7 10 10 10 8 5 2 5 7 15 15 16 15 10 13 11 8 9 12 14 16 17 20 27 33 33 34 38 34 34 32 30 29 31 32 33 35 35 31 33 32
7 7 8 7 6 6 11 7 6 8 4 4 6 2 4 8 12 15 16 13 12 12 14 18 20 23 26 30 34 39 40 35 34 36 32 36 37 34 33 35 35 33 35 35 34 31 34
8 11 10 12 11 14 14 16 16 20 22 20 22 19 8 6 14 13 16 19 20 20 19 24 27 28 30 33 34 36 38 35 38 37 38 35 37 35 36 33 31 33 34 34 36 35 36
11 5 2 4 6 6 9 13 15 16 16 17 19 19 22 23 24 22 20 21 20 24 22 25 32 33 30 35 37 40 37 36 37 38 31 35 34 32 32 33 33 34 37 39 39 40 40
9 5 6 9 10 9 13 14 17 19 19 19 19 24 24 19 23 26 25 24 24 29 27 29 33 31 33 27 23 25 30 31 33 32 31 33 41 37 35 38 39 39 41 37 39 42 42
13 10 10 12 14 13 13 14 16 23 21 20 20 23 24 25 22 25 23 22 28 32 29 33 35 31 31 33 32 33 37 33 29 31 33 33 36 38 41 42 43 47 43 44 41 45 47
23 20 18 18 16 16 15 16 19 21 21 19 21 22 24 26 21 23 23 24 32 29 33 36 37 38 34 38 46 44 41 34 36 34 35 36 35 38 39 40 40 45 49 53 60 62 63
28 28 26 24 24 20 19 18 23 19 21 19 24 22 25 24 26 26 31 32 34 32 36 37 38 37 39 43 44 49 44 41 38 40 40 37 42 43 47 46 47 50 55 56 54 54 56
35 32 29 29 25 24 22 22 15 19 22 29 27 23 26 25 31 28 33 33 40 37 41 39 42 43 39 43 48 44 43 40 42 45 49 44 47 47 49 50 55 58 62 64 68 68 67
35 35 35 33 31 28 25 25 24 25 27 27 27 27 23 30 31 29 36 43 45 46 45 48 46 50 50 49 49 52 48 43 43 49 53 54 52 52 54 54 55 61 66 69 69 73 69
41 40 37 37 33 30 30 29 30 28 29 26 29 28 29 35 35 37 45 48 46 47 49 47 50 54 54 54 56 53 53 50 50 52 59 65 61 60 61 61 63 65 68 73 70 77 72
47 45 42 39 37 35 35 34 35 34 36 37 39 38 37 39 40 48 50 52 52 54 54 56 56 58 53 55 58 56 54 53 54 54 57 62 66 70 69 70 71 71 75 78 79 83 71
51 48 44 42 41 40 41 41 42 45 44 44 44 40 41 46 51 52 55 56 58 61 61 65 65 66 60 61 57 56 54 57 59 61 63 66 68 72 73 73 76 76 78 78 87 85 73
56 52 49 49 49 48 49 49 49 50 47 47 47 47 49 51 52 55 56 58 61 63 63 66 68 66 65 62 60 60 60 63 63 66 70 74 74 74 77 77 79 80 80 83 97 91 89
59 58 57 55 54 53 52 52 51 50 52 51 52 53 55 55 56 59 59 60 64 65 67 65 65 64 62 61 65 64 65 66 70 71 74 75 77 79 78 78 78 81 86 92 97 94 97
62 62 59 58 59 60 55 55 54 54 55 56 56 55 59 60 60 61 61 65 67 68 70 68 67 65 66 66 66 65 68 72 74 76 76 81 81 80 80 83 85 89 95 96 98 99 101
68 67 67 67 66 66 67 62 61 61 58 59 61 61 63 64 66 65 66 70 72 71 73 68 69 70 71 70 71 72 74 78 79 81 83 84 83 83 85 86 92 95 96 92 98 101 105
79 74 74 72 73 75 74 71 67 67 67 68 67 65 67 68 67 68 68 67 71 74 69 68 73 73 71 73 78 74 79 87 91 86 87 90 86 87 90 94 101 99 96 102 106 108 115
83 81 80 81 83 81 78 76 77 77 73 76 76 75 76 71 69 70 72 71 72 73 74 76 77 78 82 81 81 84 91 88 88 88 93 94 92 95 100 103 107 99 100 107 113 118 124
86 83 84 85 90 90 87 83 79 80 76 74 75 78 76 78 75 75 77 76 81 79 81 82 86 88 89 88 90 93 90 85 96 93 94 97 99 103 104 109 104 103 108 114 119 125 131
84 86 82 83 89 92 92 91 91 87 88 88 83 81 77 78 79 82 85 88 91 93 92 90 84 85 88 92 89 91 90 95 93 94 96 100 105 107 109 102 105 108 115 123 126 130 134
86 85 81 81 86 88 89 91 90 88 89 89 89 89 80 80 83 84 84 87 85 84 86 87 87 89 93 91 94 94 90 95 95 95 100 106 107 109 103 105 109 117 123 126 130 134 137
86 88 85 87 87 88 88 89 90 90 93 93 96 94 93 89 89 87 86 84 85 86 90 96 93 92 94 93 94 99 93 97 96 99 104 109 110 108 109 113 120 124 128 133 134 134 133
81 89 87 91 95 90 91 89 90 91 90 95 96 97 100 99 97 94 91 91 94 92 93 96 98 99 102 102 100 97 96 97 98 103 109 109 107 109 116 123 124 128 132 135 134 127 119
88 85 88 87 90 92 94 94 91 93 96 100 102 101 103 106 103 102 101 99 97 95 95 95 98 99 101 101 99 99 98 99 103 109 106 108 111 118 125 127 130 134 137 134 125 116 112
95 91 88 87 93 97 92 95 96 99 101 101 100 102 107 108 105 100 104 105 102 104 102 97 98 99 98 98 100 99 97 100 108 109 110 114 121 122 127 131 133 136 132 124 117 111 100
107 97 96 97 95 95 92 99 99 98 102 105 105 107 108 108 110 108 106 104 103 105 107 107 102 97 98 100 95 98 102 106 107 109 115 121 123 130 134 135 133 128 121 116 108 99 93
Wind_Direction
247 254 261 266 269 271 273 277 280 280 280 284 285 289 288 284 284 289 297 312 328 42 40 31 20 18 13 10 3 351 346 342 340 338 331 323 319 318 317 304 301 304 308 307 310 307 300
180 199 209 230 255 303 312 305 300 295 300 304 349 360 356 347 314 300 334 81 61 53 32 8 354 341 347 348 349 339 329 326 332 328 323 318 315 312 313 311 301 303 298 300 305 307 312
151 153 154 146 124 110 97 89 80 90 75 62 38 42 60 44 47 78 64 54 24 357 327 320 311 311 316 313 324 329 327 322 321 317 312 309 308 302 303 303 304 293 290 296 301 304 304
114 123 123 121 71 45 41 20 28 29 3 338 315 304 3 69 51 58 48 29 356 332 322 319 314 319 322 325 323 322 320 312 309 311 305 308 299 298 297 295 292 289 295 300 299 299 293
105 107 88 73 36 73 52 61 40 40 34 45 31 14 334 44 50 43 11 10 13 5 348 342 339 336 329 324 322 315 310 309 311 310 310 310 299 298 293 289 295 303 303 299 298 296 293
145 169 342 354 4 53 19 10 15 12 22 24 22 21 6 12 25 17 4 5 7 5 2 359 359 350 332 327 317 313 311 310 309 312 316 307 295 294 302 304 306 306 302 299 296 296 296
242 247 293 302 307 320 327 348 346 351 353 356 353 360 354 349 353 358 360 356 355 352 354 346 345 346 336 340 344 350 338 325 327 321 315 302 305 307 306 306 300 300 300 298 299 297 295
254 266 279 278 288 291 302 314 326 327 329 328 338 349 342 329 342 348 343 343 340 341 340 340 340 343 336 328 326 335 341 338 335 338 339 320 316 313 309 304 301 304 301 292 292 299 298
257 259 266 271 263 272 284 297 300 308 304 330 323 320 334 317 316 328 336 335 336 329 338 343 339 338 341 342 338 339 338 339 335 335 328 322 318 321 313 308 307 307 302 296 294 294 296
261 264 267 277 282 282 276 279 286 294 296 309 317 320 320 311 325 327 328 332 335 334 333 335 334 334 334 336 337 336 335 327 328 325 325 322 317 303 299 302 310 309 310 309 306 296 292
269 267 272 276 281 282 286 288 289 281 284 300 307 310 312 307 321 323 327 333 333 331 332 330 328 328 326 332 335 328 326 317 321 322 320 320 310 307 305 299 301 301 303 303 310 309 306
261 263 265 269 275 279 283 287 293 295 301 310 306 314 314 318 318 319 326 328 328 329 331 329 327 330 327 328 331 330 322 314 309 309 312 317 312 312 302 304 304 298 305 301 301 310 307
256 261 260 265 270 274 280 286 291 297 305 309 314 312 316 321 320 314 319 324 324 326 328 327 326 326 324 324 327 329 325 316 307 298 305 308 314 311 309 308 303 305 304 307 303 311 304
256 255 259 264 271 275 279 285 289 296 301 304 306 312 313 314 312 317 318 319 320 321 324 323 324 324 320 321 323 323 319 310 310 308 306 306 312 311 308 306 307 303 304 303 306 309 302
253 254 259 263 271 273 275 282 289 294 297 300 302 305 304 307 312 313 315 316 316 316 317 317 319 321 319 317 314 316 314 314 309 307 304 307 309 307 306 305 305 303 303 302 304 307 307
252 255 258 264 268 273 276 278 282 286 293 293 295 300 303 306 308 310 311 312 312 314 315 315 318 319 318 314 310 309 312 311 308 305 306 306 306 307 306 306 306 303 305 302 307 304 312
250 255 261 264 264 266 271 276 278 283 286 289 292 295 299 301 302 306 309 311 312 313 313 313 313 314 312 307 310 310 308 306 306 306 305 304 305 305 304 309 304 304 305 304 304 308 304
254 255 257 261 264 265 266 272 273 279 284 286 288 291 296 296 300 302 306 307 308 310 310 313 312 312 308 306 307 305 307 306 306 304 303 304 305 304 307 308 308 307 306 306 306 305 309
253 253 255 258 261 264 267 272 275 277 280 282 284 287 290 291 296 301 305 306 307 308 311 312 311 313 311 306 303 304 308 306 305 304 304 304 306 304 307 307 308 307 308 309 304 305 307
251 250 251 259 263 265 267 270 272 273 277 280 282 284 288 292 295 299 301 304 305 309 310 307 310 310 308 309 306 306 305 308 308 301 303 305 305 303 307 308 312 311 313 309 308 308 306
253 256 257 259 263 262 266 269 270 275 274 277 278 280 284 290 294 297 299 302 303 307 307 307 308 310 309 312 304 300 305 304 303 303 303 303 304 305 307 307 310 314 312 309 308 306 307
256 259 262 266 263 264 267 267 271 274 276 275 278 280 280 284 289 294 297 299 300 302 304 304 307 308 307 304 305 302 302 302 305 302 302 306 304 306 307 309 311 312 308 308 306 308 311
252 256 261 265 268 268 269 271 275 276 273 274 276 281 284 287 289 290 292 293 295 297 300 303 304 302 304 303 301 300 301 302 303 303 306 307 306 306 308 310 312 310 308 308 312 312 312
246 251 254 259 265 270 270 271 272 273 274 274 274 276 280 281 282 285 289 293 297 295 296 300 302 301 303 303 301 301 300 302 303 304 306 306 307 309 310 310 311 310 310 313 313 312 310
247 247 251 253 259 267 269 270 275 277 278 278 280 282 286 288 291 293 293 295 295 295 296 298 302 303 304 302 300 301 299 303 303 303 306 308 308 312 311 309 313 313 315 313 312 311 308
253 249 250 254 256 259 268 270 272 274 279 281 283 286 287 288 289 290 292 295 297 297 299 297 299 298 300 300 301 302 302 303 304 305 306 308 309 310 307 312 315 316 313 313 311 310 310
253 251 250 255 256 256 259 266 270 271 275 278 282 284 285 288 289 293 293 297 296 294 296 296 296 297 299 299 299 303 304 302 304 307 308 308 309 309 313 314 316 314 313 312 311 310 309
248 252 252 255 260 259 261 262 264 269 274 277 280 281 284 288 290 290 288 291 292 292 295 295 298 300 298 299 300 303 304 303 304 307 309 309 311 314 316 316 315 313 312 311 310 310 310
246 248 253 252 258 259 263 265 266 270 272 274 277 280 282 284 284 283 283 288 291 294 295 296 298 298 298 298 300 303 304 304 307 308 310 312 314 316 316 315 313 312 311 310 311 311 310
Height
10758 10760 10761 10762 10761 10760 10760 10758 10757 10757 10757 10756 10755 10754 10753 10752 10751 10751 10751 10751 10751 10751 10752 10751 10750 10749 10747 10746 10744 10742 10741 10740 10738 10737 10735 10732 10730 10728 10726 10725 10723 10721 10719 10716 10714 10712 10709
10756 10757 10758 10758 10756 10756 10755 10754 10754 10754 10754 10754 10754 10753 10752 10750 10748 10747 10748 10749 10751 10750 10750 10749 10748 10747 10744 10743 10741 10739 10738 10736 10734 10733 10731 10728 10726 10723 10721 10719 10717 10715 10712 10709 10707 10704 10701
10756 10757 10758 10757 10756 10755 10754 10753 10753 10752 10752 10752 10753 10752 10750 10749 10748 10748 10748 10749 10750 10750 10749 10748 10747 10744 10742 10740 10737 10736 10734 10731 10729 10727 10724 10722 10719 10717 10714 10711 10709 10707 10704 10702 10699 10696 10692
10759 10758 10758 10758 10759 10758 10757 10756 10755 10755 10753 10752 10752 10752 10751 10749 10749 10749 10749 10749 10749 10749 10748 10747 10745 10742 10740 10737 10735 10732 10729 10725 10722 10719 10716 10714 10711 10709 10707 10704 10701 10699 10696 10693 10690 10688 10685
10761 10761 10761 10761 10760 10759 10758 10758 10758 10757 10756 10755 10754 10752 10751 10751 10750 10749 10749 10747 10746 10746 10745 10744 10742 10739 10736 10733 10730 10725 10721 10718 10714 10710 10708 10705 10703 10701 10698 10695 10694 10691 10687 10683 10680 10678 10676
10760 10760 10760 10760 10760 10760 10759 10758 10758 10757 10756 10755 10755 10754 10752 10751 10750 10750 10748 10747 10746 10744 10742 10740 10737 10734 10730 10727 10722 10717 10713 10709 10705 10702 10699 10697 10695 10693 10691 10688 10685 10682 10678 10674 10671 10669 10666
10758 10758 10758 10758 10758 10757 10757 10756 10755 10754 10753 10752 10751 10750 10749 10747 10746 10744 10743 10743 10741 10739 10737 10735 10731 10728 10724 10721 10717 10712 10706 10701 10697 10694 10692 10690 10688 10685 10682 10679 10676 10672 10669 10664 10660 10659 10657
10755 10755 10755 10755 10754 10754 10753 10753 10752 10752 10751 10749 10748 10746 10744 10743 10741 10740 10739 10738 10737 10735 10732 10730 10727 10723 10720 10717 10712 10707 10701 10695 10691 10689 10686 10682 10679 10676 10673 10670 10665 10661 10659 10655 10651 10644 10643
10751 10752 10752 10752 10751 10750 10750 10750 10750 10749 10747 10747 10745 10742 10741 10739 10738 10736 10735 10734 10732 10729 10726 10724 10721 10718 10714 10711 10706 10701 10696 10691 10685 10681 10677 10673 10669 10665 10662 10659 10654 10649 10645 10641 10639 10631 10624
10746 10746 10747 10747 10747 10746 10746 10747 10746 10745 10744 10743 10742 10740 10738 10735 10735 10733 10732 10730 10727 10724 10721 10718 10714 10711 10708 10703 10698 10693 10687 10682 10677 10672 10668 10663 10658 10653 10649 10646 10642 10636 10631 10627 10622 10618 10613
10738 10739 10740 10741 10741 10740 10741 10741 10740 10740 10739 10738 10737 10735 10734 10731 10730 10728 10726 10723 10721 10717 10715 10711 10706 10702 10698 10694 10689 10683 10678 10673 10667 10662 10658 10655 10648 10641 10634 10630 10626 10622 10614 10608 10601 10595 10591
10730 10731 10732 10733 10733 10734 10734 10734 10734 10734 10733 10731 10730 10729 10726 10725 10722 10720 10718 10716 10713 10710 10708 10703 10698 10693 10689 10685 10680 10673 10667 10661 10656 10651 10645 10639 10634 10627 10619 10612 10606 10600 10594 10587 10582 10574 10571
10722 10723 10723 10725 10726 10726 10727 10726 10726 10726 10726 10724 10722 10721 10719 10717 10715 10712 10710 10708 10705 10700 10698 10693 10688 10683 10678 10674 10669 10663 10656 10649 10644 10639 10632 10626 10620 10613 10603 10595 10589 10581 10573 10564 10559 10551 10545
10712 10713 10714 10715 10716 10717 10717 10717 10717 10717 10717 10717 10715 10712 10711 10709 10707 10704 10701 10697 10695 10691 10686 10682 10677 10672 10666 10661 10656 10651 10644 10636 10629 10623 10620 10614 10607 10596 10588 10578 10569 10563 10553 10539 10530 10529 10524
10701 10702 10704 10706 10706 10707 10708 10708 10707 10707 10707 10707 10705 10704 10701 10699 10696 10693 10690 10686 10683 10679 10675 10670 10665 10662 10654 10648 10643 10638 10631 10623 10614 10607 10599 10593 10590 10580 10569 10560 10553 10545 10533 10522 10509 10505 10500
10689 10691 10693 10695 10696 10696 10697 10698 10698 10697 10697 10696 10694 10693 10690 10687 10684 10681 10677 10674 10670 10667 10663 10658 10651 10648 10641 10633 10628 10622 10618 10609 10601 10591 10582 10577 10570 10562 10550 10542 10533 10522 10513 10500 10484 10473 10467
10676 10678 10681 10683 10684 10684 10685 10686 10687 10686 10686 10684 10683 10681 10678 10676 10672 10669 10665 10661 10656 10652 10648 10643 10636 10632 10626 10619 10613 10607 10600 10593 10584 10575 10566 10557 10552 10544 10532 10524 10511 10501 10491 10479 10464 10449 10433
10661 10666 10667 10670 10671 10671 10673 10674 10673 10674 10673 10673 10670 10669 10666 10662 10660 10655 10651 10647 10643 10637 10631 10627 10622 10615 10609 10602 10598 10589 10581 10571 10564 10558 10549 10537 10529 10521 10509 10499 10488 10477 10465 10450 10431 10420 10409
10647 10652 10652 10654 10656 10656 10659 10661 10661 10660 10660 10660 10658 10655 10652 10649 10646 10641 10637 10633 10628 10620 10614 10609 10603 10598 10591 10584 10578 10572 10562 10552 10544 10534 10526 10516 10507 10493 10484 10475 10465 10454 10441 10427 10410 10396 10389
10631 10635 10637 10639 10640 10641 10643 10645 10645 10646 10647 10646 10644 10642 10636 10636 10631 10627 10622 10617 10611 10605 10597 10591 10586 10579 10573 10565 10555 10549 10544 10536 10525 10513 10503 10492 10482 10468 10455 10445 10435 10423 10409 10392 10377 10367 10352
10612 10616 10617 10620 10621 10623 10627 10630 10631 10631 10632 10630 10629 10626 10623 10620 10615 10611 10608 10603 10595 10589 10583 10575 10569 10561 10554 10547 10539 10532 10525 10515 10505 10494 10482 10470 10459 10448 10436 10422 10408 10398 10384 10367 10351 10335 10319
10596 10598 10599 10597 10599 10603 10609 10613 10615 10615 10614 10612 10611 10610 10607 10604 10599 10596 10591 10586 10581 10574 10569 10560 10553 10546 10538 10530 10521 10512 10502 10492 10485 10474 10461 10449 10435 10426 10417 10397 10383 10374 10356 10341 10327 10311 10290
10582 10583 10585 10581 10581 10585 10589 10594 10596 10596 10596 10594 10592 10592 10590 10589 10584 10581 10577 10572 10565 10557 10552 10544 10536 10530 10520 10511 10501 10492 10482 10471 10462 10450 10439 10428 10414 10402 10393 10375 10361 10351 10333 10314 10299 10278 10256
10564 10566 10569 10568 10564 10563 10567 10570 10576 10578 10578 10578 10577 10575 10575 10573 10567 10562 10559 10554 10545 10538 10532 10525 10518 10510 10500 10490 10480 10472 10460 10449 10437 10427 10416 10401 10389 10375 10363 10348 10342 10328 10306 10286 10266 10245 10219
10547 10549 10551 10550 10552 10549 10547 10548 10548 10550 10554 10556 10555 10554 10549 10545 10542 10540 10536 10530 10525 10519 10512 10505 10498 10488 10480 10471 10460 10450 10439 10428 10415 10404 10390 10377 10363 10346 10333 10321 10313 10296 10272 10252 10236 10219 10186
10526 10530 10534 10533 10535 10539 10530 10530 10530 10532 10530 10529 10528 10528 10526 10523 10522 10520 10516 10512 10507 10500 10495 10487 10479 10471 10462 10450 10438 10426 10416 10406 10394 10382 10369 10353 10339 10326 10303 10289 10277 10263 10240 10220 10200 10182 10159
10507 10511 10517 10518 10517 10517 10518 10513 10511 10511 10513 10511 10510 10507 10503 10502 10497 10496 10492 10494 10488 10481 10475 10467 10460 10450 10438 10429 10417 10407 10396 10383 10370 10357 10343 10328 10315 10300 10280 10259 10245 10224 10204 10185 10166 10152 10134
10489 10492 10498 10501 10496 10500 10504 10498 10499 10493 10494 10496 10492 10486 10483 10481 10478 10477 10474 10471 10467 10460 10453 10446 10438 10429 10419 10406 10396 10385 10375 10362 10348 10334 10316 10305 10289 10277 10257 10236 10219 10196 10175 10154 10137 10120 10103
10468 10474 10476 10478 10479 10484 10485 10481 10482 10482 10480 10477 10474 10468 10465 10465 10459 10458 10457 10454 10449 10438 10430 10423 10417 10407 10398 10387 10376 10366 10353 10339 10324 10310 10291 10278 10260 10243 10224 10207 10187 10165 10147 10127 10111 10094 10077